Flag for Canada Weather past 2 weeks in Yarmouth County, Nova Scotia, Canada

Now
39 °F

Passing clouds.


Feels Like: 39 °F
Forecast: 42 / 60 °F
Wind: 2 mph from Southeast

Location: Yarmouth

Current Time: Oct 21, 2014 at 7:38:18 AM

Latest Report: Oct 21, 2014 at 7:00 AM


Visibility: 15 mi

Pressure: 30.09 "Hg

Humidity: 93%

Dew point: 37 °F

Location of Yarmouth CountyLocation

Historic Weather in Yarmouth County — Graph

°F

Yarmouth County temperature yesterday

Maximum temperature yesterday: 48 °F (at 4:00 PM)
Minimum temperature yesterday: 43 °F (at 2:00 AM)
Average temperature yesterday: 46 °F

Past Weeks' High & Low Weather Summary

 TemperatureHumidityPressure
High70 °F (Oct 16, 11:00 AM)100% (Oct 6, 6:00 AM)30.37 "Hg (Oct 6, 6:00 AM)
Low39 °F (Oct 13, 8:00 AM)55% (Oct 9, 3:00 PM)29.51 "Hg (Oct 19, 2:00 AM)
Average56 °F85%30.00 "Hg
* Reported Oct 6 6:00 AM — Oct 21 6:00 AM, Yarmouth County, Weather by CustomWeather, © 2014

Note: Actual official high and low records may vary slightly from our data, if they occured in-between our weather recording intervals... More about our weather records

Advertising

Yarmouth County weather history for previous 24 hours

 ConditionsComfort  
Time TempWeatherWind HumidityBarometerVisibility
6:00 AM
Oct 21
43 °FClear.5 mph81%30.08 "Hg15 mi
5:00 AM48 °FClear.3 mph66%30.07 "Hg15 mi
4:00 AM43 °FClear.6 mph81%30.06 "Hg15 mi
3:00 AM46 °FClear.5 mph71%30.05 "Hg15 mi
2:00 AM46 °FClear.6 mph76%30.04 "Hg15 mi
1:00 AM46 °FClear.7 mph71%30.03 "Hg15 mi
12:00 AM48 °FClear.10 mph71%30.02 "Hg15 mi
11:00 PM
Oct 20
48 °FPassing clouds.14 mph71%30.01 "Hg15 mi
10:00 PM48 °FPassing clouds.16 mph71%30.01 "Hg15 mi
9:00 PM48 °FPassing clouds.15 mph71%29.98 "Hg15 mi
8:00 PM46 °FPartly cloudy.14 mph76%29.97 "Hg15 mi
7:00 PM46 °FPartly sunny.14 mph76%29.96 "Hg15 mi
6:00 PM46 °FPartly sunny.13 mph71%29.95 "Hg15 mi
5:00 PM48 °FPartly sunny.17 mph62%29.94 "Hg15 mi
4:00 PM48 °FPartly sunny.17 mph66%29.94 "Hg15 mi
3:00 PM46 °FPartly sunny.20 mph66%29.93 "Hg15 mi
2:00 PM46 °FPartly sunny.16 mph66%29.93 "Hg15 mi
1:00 PM46 °FOvercast.17 mph62%29.93 "Hg15 mi
12:00 PM45 °FOvercast.18 mph66%29.94 "Hg15 mi
11:00 AM45 °FOvercast.18 mph61%29.93 "Hg15 mi
10:00 AM45 °FPartly sunny.17 mph61%29.91 "Hg15 mi
9:00 AM45 °FPartly sunny.21 mph66%29.87 "Hg15 mi
8:00 AM45 °FPassing clouds.21 mph71%29.84 "Hg15 mi
7:00 AM45 °FPassing clouds.21 mph66%29.82 "Hg15 mi
Weather by CustomWeather, © 2014

See weather overviewHow to use our weather pages